Location: Brno
(49.2000°N, 16.6330°E)
Time: 01:18:30
(UTC+02:00)

A-11 Canister half - All Passes

Search period start: 29 July 2021 00:00
Search period end: 08 August 2021 00:00
Orbit: 1527 x 1682 km, 47.3° (Epoch: 28 July)

Date Brightness Start Highest point End Pass type
(mag) Time Alt. Az. Time Alt. Az. Time Alt. Az.
29 Jul - 11:15:51 10° S 11:23:11 23° SE 11:30:26 10° E daylight
29 Jul - 13:16:58 10° SW 13:26:44 56° SSE 13:36:19 10° ENE daylight
29 Jul - 15:21:22 10° W 15:31:28 80° S 15:41:15 10° E daylight
29 Jul - 17:26:32 10° W 17:36:23 69° SSW 17:45:55 10° ESE daylight
29 Jul - 19:31:54 10° WNW 19:40:22 35° SW 19:48:35 10° SSE daylight
30 Jul - 10:54:29 10° S 11:01:35 22° SE 11:08:38 10° E daylight
30 Jul - 12:55:21 10° SW 13:05:04 54° SSE 13:14:38 10° ENE daylight
30 Jul - 14:59:40 10° WSW 15:09:46 80° S 15:19:35 10° E daylight
30 Jul - 17:04:49 10° W 17:14:44 70° SSW 17:24:17 10° ESE daylight
30 Jul - 19:10:10 10° WNW 19:18:46 36° SW 19:27:08 10° SSE daylight
31 Jul - 10:33:09 10° S 10:40:00 21° SE 10:46:48 10° E daylight
31 Jul - 12:33:44 10° SW 12:43:26 53° SSE 12:52:58 10° ENE daylight
31 Jul - 14:37:58 10° WSW 14:48:06 80° S 14:57:56 10° E daylight
31 Jul - 16:43:07 10° W 16:53:04 72° SSW 17:02:40 10° ESE daylight
31 Jul - 18:48:25 10° WNW 18:57:10 38° SW 19:05:40 10° SSE daylight
31 Jul - 20:59:07 10° WSW 20:59:48 10° WSW 21:00:30 10° SW daylight
01 Aug - 10:11:50 10° S 10:18:25 20° SE 10:24:57 10° E daylight
01 Aug - 12:12:08 10° SW 12:21:47 51° SSE 12:31:17 10° ENE daylight
01 Aug - 14:16:17 10° WSW 14:26:24 79° S 14:36:16 10° E daylight
01 Aug - 16:21:25 10° W 16:31:24 73° SSW 16:41:03 10° ESE daylight
01 Aug - 18:26:42 10° WNW 18:35:34 39° SW 18:44:10 10° SSE daylight
01 Aug - 20:35:51 10° WSW 20:38:17 11° WSW 20:40:41 10° SW daylight
02 Aug - 09:50:33 10° SSE 09:56:50 19° SE 10:03:05 10° E daylight
02 Aug - 11:50:32 10° SW 12:00:08 50° SSE 12:09:36 10° ENE daylight
02 Aug - 13:54:35 10° WSW 14:04:43 78° S 14:14:36 10° E daylight
02 Aug - 15:59:42 10° W 16:09:44 74° SSW 16:19:25 10° ESE daylight
02 Aug - 18:04:58 10° WNW 18:13:57 41° SW 18:22:40 10° SSE daylight
02 Aug - 20:13:25 10° W 20:16:44 12° WSW 20:20:03 10° SW daylight
03 Aug - 09:29:18 10° SSE 09:35:16 18° SE 09:41:11 10° E daylight
03 Aug - 11:28:57 10° SW 11:38:29 48° SSE 11:47:55 10° ENE daylight
03 Aug - 13:32:53 10° WSW 13:43:01 78° S 13:52:56 10° E daylight
03 Aug - 15:38:00 10° W 15:48:03 75° SSW 15:57:47 10° ESE daylight
03 Aug - 17:43:15 10° WNW 17:52:20 43° SW 18:01:10 10° SSE daylight
03 Aug - 19:51:11 10° W 19:55:12 13° WSW 19:59:10 10° SSW daylight
04 Aug - 09:08:06 10° SSE 09:13:41 16° SE 09:19:16 10° E daylight
04 Aug - 11:07:22 10° SW 11:16:51 47° SE 11:26:14 10° ENE daylight
04 Aug - 13:11:12 10° WSW 13:21:20 77° SSE 13:31:16 10° E daylight
04 Aug - 15:16:18 10° W 15:26:22 76° SSW 15:36:09 10° ESE daylight
04 Aug - 17:21:32 10° WNW 17:30:44 44° SW 17:39:39 10° SSE daylight
04 Aug - 19:29:04 10° W 19:33:39 14° WSW 19:38:11 10° SSW daylight
05 Aug - 08:46:56 10° SSE 08:52:07 15° SE 08:57:17 10° E daylight
05 Aug - 10:45:48 10° SSW 10:55:12 45° SE 11:04:32 10° ENE daylight
05 Aug - 12:49:31 10° WSW 12:59:39 76° SSE 13:09:36 10° E daylight
05 Aug - 14:54:36 10° W 15:04:41 77° SSW 15:14:30 10° ESE daylight
05 Aug - 16:59:48 10° WNW 17:09:06 46° SW 17:18:07 10° SSE daylight
05 Aug - 19:07:02 10° W 19:12:06 15° SW 19:17:07 10° SSW daylight
06 Aug - 08:25:50 10° SSE 08:30:33 14° ESE 08:35:15 10° E daylight
06 Aug - 10:24:15 10° SSW 10:33:34 44° SE 10:42:49 10° ENE daylight
06 Aug - 12:27:49 10° WSW 12:37:57 75° SSE 12:47:56 10° E daylight
06 Aug - 14:32:53 10° W 14:43:00 78° S 14:52:51 10° ESE daylight
06 Aug - 16:38:05 10° WNW 16:47:28 47° SW 16:56:34 10° SE daylight
06 Aug - 18:45:03 10° W 18:50:33 17° SW 18:55:59 10° SSW daylight
07 Aug - 08:04:50 10° SSE 08:08:59 13° ESE 08:13:08 10° E daylight
07 Aug - 10:02:41 10° SSW 10:11:56 42° SE 10:21:08 10° ENE daylight
07 Aug - 12:06:09 10° WSW 12:16:17 74° SSE 12:26:15 10° E daylight
07 Aug - 14:11:11 10° W 14:21:19 78° S 14:31:12 10° ESE daylight
07 Aug - 16:16:23 10° WNW 16:25:51 49° SSW 16:35:02 10° SE daylight
07 Aug - 18:23:06 10° W 18:28:59 18° SW 18:34:47 10° SSW daylight
